GFSFLT2_850_temp_057.txt.gz
Temp
13 13 14 14 14 14 15 15 15 14 15 15 14 15 14 14 15 14 14 14 14 14 14 14 14 13 13 13 13 13 12 12
13 14 14 15 15 15 15 15 15 15 14 14 14 14 14 14 14 14 14 14 14 14 14 13 13 12 12 13 13 13 12 12
13 14 14 15 15 15 15 14 14 14 14 14 14 13 13 13 14 13 13 13 13 13 13 12 12 12 12 12 12 12 12 12
13 14 14 15 14 14 14 14 14 14 13 13 13 13 13 13 13 12 12 12 12 12 12 12 12 12 12 11 11 11 12 11
13 14 14 14 15 14 14 13 13 13 13 13 12 12 12 12 12 12 12 12 12 11 12 11 11 11 11 11 10 10 10 10
13 13 13 14 14 13 13 13 13 12 12 12 12 12 12 12 12 11 11 11 11 11 11 11 11 11 10 10 10 9 9 9
14 14 13 13 13 13 12 12 12 12 12 13 13 13 12 12 12 12 12 12 12 11 11 11 11 11 10 10 9 9 9 9
14 14 13 13 13 13 13 13 12 13 13 13 13 13 13 13 13 12 12 11 11 11 11 11 10 10 9 9 9 9 8 8
14 14 13 13 13 13 13 13 13 13 13 13 13 12 13 12 12 11 11 11 11 11 10 9 9 9 9 8 7 7 8 8
14 13 13 13 13 13 13 13 13 13 13 13 12 12 12 12 12 11 11 11 10 9 9 9 8 8 7 7 7 6 6 6
13 13 13 13 13 13 13 13 13 13 12 12 12 11 11 12 11 10 9 8 8 8 8 7 7 7 6 6 6 6 5 5
13 13 13 13 13 13 12 13 12 12 11 11 11 11 11 10 9 9 8 7 7 7 7 7 6 5 5 4 4 4 4 5
14 14 14 13 12 13 12 12 11 11 10 10 11 11 10 9 9 8 8 8 7 7 6 6 5 5 5 5 4 3 3 4
14 14 13 13 12 12 11 11 11 10 10 10 10 9 9 9 7 7 8 8 7 7 6 6 5 4 3 3 3 3 3 3
15 14 13 12 12 11 11 10 10 9 10 10 10 9 9 8 8 8 7 7 7 6 5 4 4 3 3 2 2 2 2 2
13 13 13 12 12 11 11 11 10 10 10 10 9 8 9 8 8 7 7 6 5 4 4 4 3 3 2 2 2 2 1 0
13 13 12 12 12 12 11 11 11 10 10 9 8 8 7 7 7 6 5 5 4 4 4 3 3 3 2 2 1 1 1 0
13 13 12 12 12 12 11 11 10 10 9 8 8 8 7 7 6 5 5 4 4 4 3 3 2 2 2 1 1 -0 -0 -1
12 12 12 12 12 11 11 10 10 9 9 9 8 8 7 7 6 6 5 5 4 3 2 2 2 1 1 1 0 -0 -1 -2
13 13 12 12 11 11 11 10 9 9 9 8 7 7 6 6 5 5 4 4 3 2 2 1 1 1 0 0 -0 -1 -2 -2

GFSFLT2_850_temp_060.txt.gz
Temp
12 13 12 14 14 14 15 15 15 15 15 15 15 15 15 15 15 15 15 14 14 14 14 14 13 13 13 13 13 12 12 12
13 12 14 13 14 15 15 15 15 15 15 15 15 15 15 14 14 14 14 13 13 13 13 13 13 13 13 13 12 12 12 11
13 13 13 14 14 15 15 15 15 14 14 14 14 14 13 13 13 12 12 12 12 12 12 12 12 12 12 12 12 11 11 11
13 13 14 14 15 16 15 15 14 13 13 13 13 13 13 12 12 12 12 12 12 12 12 12 12 12 12 12 11 11 11 10
12 13 13 15 16 16 15 14 13 12 12 12 12 13 13 12 12 12 12 12 12 12 12 12 11 11 11 11 11 11 10 9
13 13 14 14 15 15 14 14 13 12 12 12 12 12 12 11 12 12 12 12 12 11 11 11 11 10 10 10 10 9 9 9
13 13 13 14 14 14 13 12 12 12 12 12 12 12 12 12 12 12 12 11 11 11 11 11 11 11 10 10 9 9 8 8
13 13 13 14 14 13 13 12 12 12 12 12 13 12 12 12 12 12 11 11 11 11 11 11 11 11 10 9 9 9 8 8
13 13 13 13 13 13 13 13 12 12 12 13 13 13 13 12 12 11 11 11 11 11 11 10 10 9 8 8 8 7 7 7
13 13 13 13 13 13 12 12 12 12 12 12 12 12 12 12 11 11 11 11 11 11 9 8 8 8 7 7 6 6 5 5
14 14 13 13 13 13 13 13 12 12 12 12 12 12 12 11 11 11 11 10 9 8 8 7 7 6 6 5 5 5 5 4
14 14 13 13 13 13 12 12 12 12 11 11 11 11 11 11 11 10 9 8 7 7 7 7 6 5 5 5 4 4 4 4
15 14 13 13 13 13 12 12 12 11 10 10 10 11 11 10 10 9 8 7 7 7 6 6 6 5 5 4 3 3 3 3
14 14 14 13 13 13 12 12 11 10 10 10 10 10 10 9 9 9 8 7 7 7 6 6 6 4 4 3 3 3 2 2
14 14 13 13 12 12 11 10 10 10 10 10 10 9 9 9 9 8 8 8 7 7 6 5 4 4 3 3 2 2 2 1
14 13 12 12 11 11 12 12 12 11 11 10 9 9 9 10 9 9 8 7 7 6 5 4 4 3 3 2 2 2 1 0
13 12 12 11 11 11 11 12 11 11 10 9 9 9 8 8 8 7 6 6 5 5 4 4 3 3 2 2 1 1 1 0
12 12 12 11 11 11 11 11 11 10 9 9 8 7 8 7 7 6 6 6 5 4 4 4 3 2 2 1 1 1 0 -0
13 12 11 11 12 11 11 10 10 10 9 9 8 7 7 6 6 4 5 5 4 4 3 3 2 1 1 1 0 0 -0 -1
12 12 11 11 11 11 11 10 9 9 8 7 7 7 6 7 5 5 5 4 4 3 3 2 1 1 0 -0 -0 -1 -1 -2

GFSFLT2_850_temp_063.txt.gz
Temp
12 13 13 13 14 15 16 15 15 15 15 15 15 14 14 14 14 14 14 14 14 14 13 13 13 12 13 13 12 12 11 11
12 12 12 13 15 15 15 15 15 15 15 14 14 14 14 14 13 13 13 13 13 13 13 13 13 12 12 12 12 11 11 11
11 12 13 13 15 15 15 14 14 14 14 14 13 13 13 13 12 13 12 13 13 13 13 13 12 12 12 12 11 11 11 10
11 11 12 13 14 14 14 14 14 14 13 13 12 12 12 12 12 12 12 13 13 13 13 13 12 12 12 11 11 10 10 10
11 11 13 13 14 14 14 14 14 13 13 12 12 12 12 12 12 12 12 12 12 12 12 12 11 11 11 11 10 10 10 9
11 11 13 13 13 14 14 13 13 13 12 12 12 12 12 12 12 12 12 12 12 11 11 11 10 10 10 10 10 9 9 8
12 12 12 13 13 13 13 13 12 13 13 12 12 12 12 12 12 12 11 11 11 11 10 10 10 10 10 9 9 9 9 8
11 12 13 13 13 13 13 13 13 12 12 12 12 12 12 12 12 11 11 11 11 10 10 10 10 9 10 10 9 8 8 8
12 13 13 13 13 13 13 13 13 13 12 12 12 12 12 12 12 11 11 10 11 10 10 10 10 10 9 8 7 7 6 6
13 13 13 13 13 13 13 13 12 12 12 12 12 12 12 12 11 11 11 11 10 10 10 10 9 9 8 7 6 6 5 5
13 13 13 13 13 13 13 12 12 11 12 12 12 12 11 11 11 11 11 10 10 10 9 9 8 6 6 5 5 5 4 4
13 13 13 13 13 12 12 12 11 11 11 11 11 11 11 11 11 10 10 10 9 9 8 7 6 5 5 4 4 4 4 4
13 14 13 13 12 12 12 12 11 11 11 11 11 11 11 10 10 10 9 9 8 8 7 6 6 5 4 4 4 3 3 3
13 14 13 12 12 12 12 12 12 11 10 10 10 10 10 10 9 9 9 8 7 7 6 6 5 5 4 3 3 3 3 2
14 14 13 13 13 12 12 11 11 10 10 10 10 10 10 9 9 8 8 7 6 6 6 5 5 4 3 3 2 2 2 2
15 14 14 13 12 11 11 12 12 11 11 10 10 9 8 8 8 7 7 6 6 6 5 4 4 3 3 2 2 1 1 1
14 14 14 13 12 10 11 11 11 11 10 10 9 8 7 7 7 6 6 6 5 5 4 4 3 3 2 2 1 1 1 0
14 13 13 12 11 11 11 12 11 11 10 9 8 7 7 6 6 6 6 6 5 4 4 4 3 2 2 1 1 0 0 -0
14 13 12 12 11 11 11 11 11 11 10 9 8 7 6 6 6 5 5 4 4 4 4 3 3 2 1 1 0 -0 -1 -1
14 13 12 11 11 11 11 11 10 10 9 8 7 7 7 6 6 5 4 4 4 3 3 2 2 1 -0 -1 -1 -1 -1 -2

GFSFLT2_850_temp_066.txt.gz
Temp
13 12 13 13 13 15 16 15 16 15 14 14 14 14 14 13 13 14 14 14 14 13 13 13 13 12 12 12 12 11 11 11
12 11 11 12 13 14 15 15 15 14 14 13 13 13 13 13 13 13 13 13 14 13 13 12 12 12 12 12 11 11 11 11
11 11 11 11 13 13 14 15 14 14 13 13 13 13 13 13 13 13 13 14 13 13 12 12 12 12 11 11 11 11 10 10
11 10 10 12 12 13 14 14 14 13 13 13 13 13 12 12 12 13 13 13 13 13 12 12 12 12 11 11 11 10 10 10
10 11 10 11 13 14 14 14 13 13 13 12 12 12 12 12 12 12 12 13 12 12 12 12 11 11 11 10 10 9 9 9
10 12 12 12 13 13 13 13 13 13 12 12 12 12 12 12 12 12 12 12 12 12 11 11 11 10 10 10 10 10 10 9
11 11 13 13 13 13 13 12 12 12 12 12 12 12 12 12 12 12 12 11 11 11 10 10 10 10 10 10 10 10 9 9
11 12 11 11 13 12 12 12 12 12 12 12 12 12 12 12 12 11 11 11 10 10 10 10 10 10 9 9 9 9 9 9
12 11 12 12 13 12 12 11 12 12 12 12 12 12 12 11 11 11 10 10 10 10 10 10 9 9 9 8 8 8 8 7
12 12 12 12 12 12 12 12 12 12 12 12 12 12 11 11 11 11 10 10 10 10 10 9 9 8 8 8 7 7 6 5
12 12 12 12 12 12 12 12 12 12 12 12 12 12 12 11 11 10 10 10 10 9 9 8 8 8 7 6 6 6 5 4
13 12 12 12 12 12 12 12 12 12 11 11 12 11 11 11 10 10 10 10 9 9 8 8 7 6 6 5 5 4 4 3
13 13 12 12 12 12 12 12 11 11 11 11 11 11 11 10 10 10 9 9 8 7 7 6 6 5 4 4 4 3 3 3
13 12 13 13 12 12 12 12 11 11 11 11 10 10 10 10 9 9 8 7 7 6 6 6 5 5 4 3 3 3 3 2
14 14 13 13 13 12 12 11 11 10 10 10 10 10 9 9 8 7 7 7 6 6 6 5 4 4 3 3 2 3 2 2
14 13 13 13 12 12 12 11 11 11 11 10 9 9 8 8 7 7 7 7 7 5 5 4 4 3 3 3 2 1 1 0
14 14 13 12 12 12 11 10 10 10 10 9 9 9 8 7 7 7 7 6 5 5 4 4 3 3 2 2 1 1 0 -0
14 13 13 13 12 12 10 10 10 10 10 9 9 8 7 7 6 7 7 6 6 5 4 3 3 3 2 1 1 0 -0 -1
13 13 13 12 12 11 11 10 10 11 11 10 9 9 8 7 6 5 5 5 5 4 3 3 3 2 1 1 0 -0 -1 -1
15 14 14 13 11 11 10 10 10 11 10 10 9 9 7 6 5 4 5 4 3 3 3 2 2 2 1 0 -0 -1 -1 -1

GFSFLT2_850_temp_069.txt.gz
Temp
12 12 13 13 14 15 15 15 15 15 16 14 14 14 14 13 13 13 13 13 13 13 13 12 12 12 12 12 12 12 11 11
12 11 12 12 12 13 14 15 15 16 15 14 14 14 13 13 13 13 13 13 13 12 12 12 12 12 12 12 11 11 11 11
12 12 11 10 11 12 14 14 15 14 14 13 13 13 13 13 13 13 13 13 12 12 12 12 12 11 11 11 11 11 10 10
12 11 11 11 10 11 13 14 14 14 13 13 13 13 13 13 13 13 13 12 12 12 12 12 11 11 11 10 10 10 10 10
11 10 10 11 11 13 13 13 13 13 13 13 13 13 13 13 12 12 12 12 12 12 12 11 11 11 10 10 10 10 10 9
9 10 10 10 11 12 13 13 13 13 13 13 13 12 12 12 12 12 12 12 12 11 11 11 11 10 10 10 11 11 10 10
9 10 10 10 12 13 13 13 13 12 12 12 12 12 12 12 12 12 11 11 11 11 11 10 10 10 11 10 10 10 10 9
10 11 11 11 12 12 13 13 12 12 12 12 12 12 12 12 12 11 11 11 11 10 10 10 11 10 10 10 10 10 9 9
11 11 11 11 11 12 12 12 12 11 12 12 12 12 12 12 11 11 10 10 10 10 10 10 10 9 9 9 9 9 8 8
12 12 12 11 11 12 12 12 12 12 12 12 12 12 12 11 11 10 10 10 10 10 10 9 9 9 8 8 8 7 7 6
11 12 11 11 12 12 12 11 11 12 12 12 12 12 12 11 10 10 10 10 10 10 9 9 8 8 7 7 6 6 5 5
11 11 12 12 12 11 11 11 11 11 12 12 12 12 12 11 10 10 10 10 9 9 8 8 7 7 6 6 5 5 4 4
12 12 12 12 12 12 11 11 12 12 12 11 11 11 11 11 10 10 10 9 9 8 8 7 6 6 5 4 4 4 3 3
13 13 12 12 12 12 12 12 12 12 11 11 10 11 11 10 10 9 9 9 8 7 6 6 5 5 4 4 4 3 3 3
14 13 13 12 12 12 12 12 11 10 10 10 10 10 10 9 9 9 8 8 7 6 6 5 5 4 4 3 3 4 2 2
14 13 13 13 12 12 12 12 12 11 11 11 10 10 9 9 8 8 7 7 6 6 5 5 5 4 3 3 3 2 2 3
14 13 13 12 12 12 12 11 10 10 10 10 10 9 9 8 8 7 7 6 6 5 5 4 4 4 3 3 2 2 1 -0
14 14 13 13 12 12 12 11 10 9 10 10 9 9 9 8 8 7 6 6 5 4 4 4 4 3 3 2 2 0 0 -1
14 14 14 14 12 12 11 11 10 9 10 10 9 9 9 8 7 6 6 5 5 5 4 4 3 3 2 1 1 -0 -1 -1
15 15 14 14 13 12 12 11 10 9 10 10 10 10 9 8 7 6 5 5 5 4 4 3 3 2 1 1 0 -1 -1 -1

GFSFLT2_850_temp_072.txt.gz
Temp
14 13 13 13 13 14 14 15 15 15 16 15 15 14 14 14 14 13 13 13 13 13 13 13 12 12 12 12 12 11 11 11
12 11 12 11 12 13 14 14 14 15 15 15 14 14 13 13 13 13 13 13 13 13 12 12 12 12 12 11 11 11 11 11
11 11 11 10 11 12 13 13 14 14 14 14 13 13 13 12 13 13 13 12 13 12 12 12 11 11 11 11 11 10 10 10
12 12 11 10 10 11 12 11 12 14 15 14 13 12 11 12 13 13 12 12 12 11 11 11 11 10 10 10 10 10 9 10
12 11 11 10 9 10 9 12 13 13 14 13 13 13 13 11 12 12 11 11 11 11 11 10 11 10 11 11 10 9 9 9
11 10 10 11 10 10 10 10 13 13 13 13 13 12 12 11 11 12 11 11 11 11 11 11 11 10 11 11 11 10 9 8
8 9 10 10 10 11 11 13 13 13 12 13 12 12 12 12 12 11 11 11 10 11 10 10 10 11 11 11 11 10 10 8
10 9 9 9 9 9 11 12 13 12 12 12 12 12 12 12 12 12 11 10 10 10 10 10 10 10 10 10 10 9 9 8
9 9 9 10 10 11 12 12 11 10 11 12 12 12 12 12 12 12 11 11 10 10 10 10 10 9 9 9 8 8 8 8
9 9 11 11 11 12 11 11 11 12 12 12 12 12 12 12 11 11 11 10 10 10 10 10 9 8 7 7 7 8 8 7
9 10 11 11 11 11 10 10 12 12 12 12 12 12 12 12 11 11 10 10 10 10 10 9 8 7 7 7 7 6 6 5
10 11 11 11 11 11 11 11 11 12 12 12 12 12 12 11 11 10 10 10 10 10 9 9 8 7 6 6 5 5 5 4
11 11 12 12 12 11 11 12 12 12 12 12 12 12 11 11 10 10 10 10 9 9 8 8 6 6 6 7 6 4 4 4
11 11 11 12 11 11 10 11 12 11 11 12 11 11 11 11 10 10 10 9 9 9 8 6 6 5 6 6 8 7 5 4
11 11 11 11 11 11 10 10 12 11 11 11 11 11 10 10 10 10 10 9 8 8 7 6 6 5 4 5 7 8 6 6
12 12 12 11 11 11 12 11 10 10 11 10 10 10 10 10 9 9 9 8 8 8 7 6 5 5 5 4 3 4 5 5
12 12 11 11 12 12 11 10 10 11 11 10 10 10 10 9 9 8 8 8 7 7 6 5 4 4 4 4 4 3 3 3
12 12 11 12 12 12 12 10 11 11 10 10 9 9 10 9 8 8 8 7 7 5 5 6 5 4 3 3 3 3 3 3
13 12 12 11 13 12 12 12 12 11 10 10 7 8 9 9 8 8 7 7 6 5 5 3 4 2 2 2 2 2 1 1
16 15 14 14 14 13 12 12 12 11 10 9 8 8 8 7 7 6 6 5 5 5 4 3 2 2 1 1 1 1 1 1

GFSFLT2_850_temp_075.txt.gz
Temp
15 14 14 13 14 14 14 15 15 15 16 16 16 15 15 15 14 14 14 14 14 13 13 13 12 12 12 12 12 12 13 13
12 12 13 13 13 13 13 14 14 15 15 15 16 15 15 14 14 14 14 13 13 13 13 12 12 12 12 11 11 12 12 13
12 12 12 12 11 12 12 12 13 14 14 14 15 14 13 13 14 13 13 13 13 13 12 12 12 11 11 11 11 11 12 12
11 12 12 11 10 10 11 12 12 12 13 14 14 14 13 13 13 12 13 13 12 12 12 11 11 11 11 11 11 11 11 11
12 12 11 11 9 9 10 11 10 11 11 12 12 12 12 13 12 12 12 11 11 11 11 11 11 11 10 11 10 11 10 10
12 11 11 9 9 10 10 11 10 11 11 11 11 12 12 12 11 11 11 10 10 10 10 11 11 11 11 11 11 10 10 10
9 9 9 9 9 11 10 10 11 11 11 11 12 12 11 11 11 10 11 10 10 10 10 9 11 11 10 10 9 9 9 9
9 8 8 8 8 9 10 11 11 11 11 12 13 11 11 11 11 10 11 10 10 10 9 10 10 10 10 10 10 9 9 9
9 9 8 8 8 8 9 9 11 12 12 13 12 11 12 12 12 11 10 10 10 10 10 10 9 9 9 9 8 8 7 7
9 9 9 9 9 9 10 10 11 12 11 12 12 12 12 12 10 10 10 10 10 9 9 9 9 9 9 9 8 8 7 7
10 9 9 9 10 10 10 11 12 11 12 11 12 12 12 10 10 10 11 10 9 9 9 9 9 9 9 8 7 8 7 7
10 10 10 10 11 10 11 11 11 11 12 11 11 11 12 10 10 11 10 9 9 9 9 9 9 8 9 9 8 7 7 6
11 11 11 11 11 11 11 11 11 12 11 11 12 10 11 10 10 10 9 9 9 10 10 9 8 7 8 9 9 7 6 6
12 12 11 11 12 12 12 12 10 11 11 11 12 12 12 10 9 9 9 9 9 9 8 8 8 7 7 7 9 9 7 6
12 12 11 11 13 12 12 12 10 10 11 10 12 12 10 9 9 9 8 8 8 8 8 7 8 7 6 6 8 9 8 8
13 13 12 12 12 13 13 12 11 11 10 10 12 11 11 10 9 8 8 8 8 7 7 7 6 7 7 6 5 5 6 6
13 13 14 14 12 12 13 13 13 11 10 10 12 11 10 9 8 8 8 8 7 7 6 7 6 6 6 6 6 5 5 5
14 14 14 14 13 12 12 12 12 11 11 12 11 10 9 8 8 7 7 7 6 7 7 6 7 6 5 5 5 5 5 5
14 14 14 14 12 12 11 12 12 11 11 12 11 10 9 8 7 7 6 6 6 7 6 7 6 4 4 4 4 4 3 3
15 14 14 14 13 11 12 11 11 10 10 9 11 10 8 8 7 7 6 5 6 6 6 6 5 4 3 3 3 3 3 3

GFSFLT2_850_temp_078.txt.gz
Temp
15 14 14 13 14 14 14 14 15 15 15 15 15 15 15 15 15 15 14 14 14 13 13 13 13 12 12 13 13 13 13 13
14 14 14 13 13 13 13 14 14 15 15 15 15 14 15 15 14 14 14 14 13 13 13 13 12 12 12 12 12 12 12 12
14 13 12 12 12 13 13 14 14 14 14 14 14 14 14 14 14 14 14 13 13 13 12 12 12 11 11 11 11 12 12 12
12 13 11 12 11 12 13 13 13 13 13 13 12 14 14 14 14 13 13 13 13 12 12 11 11 11 11 11 12 11 11 11
12 11 11 11 11 11 11 11 11 12 12 11 12 15 13 14 13 13 12 12 12 12 11 11 11 11 11 11 11 11 11 10
11 11 11 11 11 11 11 10 10 11 11 11 14 12 13 12 13 12 12 12 12 11 10 11 11 11 11 12 11 11 10 10
11 10 9 10 10 10 9 10 11 11 10 13 13 13 13 12 12 11 11 11 10 11 11 11 11 12 11 11 10 10 10 9
10 9 9 9 8 9 10 11 10 11 11 13 12 11 11 11 11 11 11 11 11 10 10 10 10 11 11 11 10 10 10 9
9 9 8 8 8 9 9 10 10 10 12 12 11 12 11 11 11 11 11 11 10 10 10 10 10 9 10 10 10 9 9 9
9 8 8 7 8 10 10 8 10 11 11 10 11 11 12 12 11 11 10 10 10 10 10 10 9 9 9 9 9 8 8 8
9 9 9 9 9 9 9 9 10 9 10 10 11 11 12 12 11 10 10 10 10 10 9 10 9 9 9 9 9 8 8 7
9 10 10 9 9 10 10 10 10 10 10 11 11 12 12 11 11 10 10 10 9 10 9 9 9 9 10 9 9 8 8 7
11 10 10 10 9 9 10 10 11 11 12 11 11 11 11 11 10 11 10 9 9 9 9 9 9 9 9 9 9 9 8 8
10 10 10 10 10 10 11 11 12 12 11 11 11 11 11 11 10 11 10 9 9 9 9 8 8 8 9 8 9 8 7 8
10 11 11 11 11 11 12 12 11 12 11 11 11 12 12 11 10 10 10 9 9 9 8 8 8 8 8 7 8 8 7 7
12 12 12 12 12 12 12 12 11 12 12 11 11 12 11 11 10 9 9 9 9 9 8 8 8 7 7 7 6 6 6 6
12 13 13 13 13 12 13 12 12 12 12 11 11 11 12 11 10 9 9 9 8 8 7 7 8 8 7 6 6 6 6 5
13 13 13 13 13 13 13 13 13 12 11 11 11 11 11 10 10 8 8 8 8 8 7 7 7 7 7 6 5 5 5 5
13 13 13 14 14 13 14 13 13 12 12 12 12 12 12 11 9 8 8 8 7 7 7 7 7 7 6 6 4 4 4 4
14 14 14 14 14 14 14 13 12 12 12 13 12 12 12 11 10 8 8 7 7 7 6 6 6 5 5 5 4 4 3 3

GFSFLT2_850_temp_084.txt.gz
Temp
14 13 13 12 12 15 15 15 15 16 16 16 15 15 14 14 15 15 14 14 14 14 14 13 12 12 12 12 12 12 12 12
15 13 15 12 12 13 13 15 15 16 16 15 15 14 15 14 14 14 14 14 14 13 13 13 13 12 12 12 12 11 11 12
13 12 11 12 12 12 13 13 15 15 15 14 14 13 14 14 14 14 14 14 13 13 13 13 13 12 12 12 12 12 11 12
11 12 13 12 11 11 12 14 14 14 14 14 14 14 14 14 14 14 14 13 13 12 12 13 12 12 12 12 12 11 11 11
11 14 12 12 11 10 12 13 14 14 14 14 14 14 13 14 13 13 13 13 13 12 13 11 12 12 12 12 12 11 11 11
11 11 13 11 11 11 12 12 13 13 13 13 14 14 14 14 14 13 13 13 13 13 12 12 11 11 11 12 11 11 11 11
12 11 12 11 11 11 12 13 13 13 13 14 14 14 14 13 14 13 13 13 12 12 12 11 11 11 11 11 11 11 11 11
11 11 11 11 11 11 11 12 12 12 13 13 13 14 13 14 13 13 13 13 12 12 12 11 11 11 11 11 11 11 11 10
11 11 11 10 11 10 11 11 11 11 12 13 13 13 13 13 13 13 13 12 12 12 11 11 11 11 11 11 11 10 10 10
11 10 10 10 9 10 10 11 11 11 12 11 12 12 12 13 13 13 13 12 11 11 11 11 11 11 11 10 10 10 9 9
10 10 10 10 9 10 10 10 10 11 11 12 12 11 12 12 12 13 12 11 11 11 11 11 11 10 10 10 10 9 9 9
10 9 9 8 8 9 9 10 10 10 10 11 11 12 11 11 11 11 11 11 10 10 10 10 10 10 10 9 9 9 8 9
9 8 8 8 9 8 8 9 9 10 11 11 11 10 11 11 11 11 11 11 11 10 10 10 10 10 9 9 9 9 9 8
9 9 8 8 9 9 9 8 9 10 11 11 11 10 11 13 12 11 11 11 10 10 10 10 10 9 9 9 9 8 8 8
9 9 9 9 9 9 9 9 9 10 11 11 11 12 12 12 12 12 11 11 10 10 11 10 10 9 9 9 8 9 9 8
9 8 8 9 9 9 9 10 10 10 11 11 12 13 12 12 11 11 10 10 10 10 11 10 10 9 9 9 8 8 8 7
10 10 10 9 9 10 10 10 10 11 11 12 12 12 12 11 11 10 11 10 10 10 10 10 9 9 9 9 8 8 7 7
10 11 11 11 11 11 10 11 11 11 11 11 11 11 11 11 11 10 11 10 10 10 10 9 9 9 9 8 8 8 7 7
11 11 11 11 11 11 11 11 11 11 11 11 11 11 11 12 11 11 11 10 10 10 9 9 9 8 7 7 7 7 7 6
12 12 12 11 11 11 11 11 11 12 12 12 12 12 12 12 12 11 11 10 9 9 9 8 8 6 6 6 6 5 5 5

GFSFLT2_850_temp_087.txt.gz
Temp
15 14 15 14 14 15 15 12 15 16 16 15 15 14 14 14 14 14 14 13 12 12 13 13 13 13 12 12 12 12 12 12
14 14 15 13 12 12 13 13 13 16 15 15 14 14 14 14 14 14 14 13 13 13 12 13 13 13 12 12 12 12 12 12
14 13 13 13 13 12 12 12 11 15 15 14 13 13 13 14 14 14 13 13 13 13 13 13 12 12 12 12 12 12 12 12
11 12 11 11 13 11 11 11 10 13 15 12 12 13 13 13 14 13 13 13 13 12 13 13 12 12 12 11 12 12 11 11
11 11 11 12 11 11 11 11 10 12 13 12 13 13 13 13 13 13 13 13 13 13 12 13 12 12 12 12 12 11 11 11
11 12 12 11 10 11 11 11 10 12 13 13 13 13 13 13 13 13 13 13 13 12 13 12 12 11 11 12 12 11 11 11
11 11 11 12 11 11 11 9 11 13 13 13 13 13 13 14 14 13 13 13 13 13 12 12 12 11 11 12 12 11 10 10
11 11 11 11 12 11 9 10 12 13 13 13 13 14 14 14 14 13 14 13 12 13 12 12 11 11 11 11 11 11 10 10
11 11 11 11 10 10 10 11 12 13 13 13 14 14 14 14 14 13 14 12 12 12 11 11 11 11 11 11 11 10 10 10
11 11 11 10 10 10 10 11 12 12 12 13 13 13 13 14 13 13 13 12 12 12 11 11 11 11 11 11 10 10 10 10
11 11 11 10 9 10 10 11 11 11 11 11 12 12 13 13 13 12 12 12 11 12 11 11 11 11 11 10 10 10 9 9
10 10 10 9 9 9 9 10 11 11 11 11 12 12 12 12 12 11 12 11 11 11 11 11 10 11 10 10 10 9 9 9
9 10 10 9 9 9 10 10 10 10 11 11 11 11 13 11 11 11 11 11 12 11 10 10 10 10 10 9 9 9 9 9
10 9 9 9 8 9 9 10 10 9 10 10 11 12 12 11 11 11 11 11 10 10 10 10 10 10 10 10 9 9 9 8
9 9 9 8 8 8 9 9 9 9 10 10 11 11 11 12 11 11 11 11 11 11 10 10 10 10 10 10 8 9 9 9
9 10 9 8 8 8 9 9 8 9 10 11 11 11 12 11 11 10 11 11 11 11 11 10 10 10 10 9 9 9 9 9
10 10 10 9 9 9 9 9 8 9 10 10 11 11 11 10 10 10 11 11 11 11 10 10 10 10 10 10 9 9 8 8
11 11 11 10 9 9 9 10 10 10 10 10 11 11 10 11 11 12 12 11 11 11 10 9 9 10 10 9 8 8 8 7
11 11 11 10 10 9 10 10 10 10 10 11 11 11 12 12 13 12 12 11 11 11 10 9 9 9 9 8 8 8 6 6
12 12 12 12 11 10 10 11 11 11 12 12 12 12 13 13 13 12 12 11 11 11 9 9 9 8 8 8 7 7 7 6

GFSFLT2_850_temp_090.txt.gz
Temp
15 14 14 15 15 16 17 18 16 14 15 17 15 14 14 14 13 13 13 14 13 13 13 13 12 12 12 12 12 12 13 12
15 15 15 14 14 14 16 16 14 13 14 15 15 13 14 14 13 13 13 13 13 13 13 13 12 12 12 12 12 12 12 12
13 14 14 14 13 14 14 15 14 13 12 13 13 13 13 13 12 12 13 12 13 13 13 13 13 12 12 12 12 12 12 12
11 12 13 14 12 11 12 12 13 13 12 12 13 13 13 13 12 12 12 12 13 13 13 13 13 12 12 12 12 12 12 12
11 12 12 13 12 12 11 12 11 13 11 12 13 13 13 13 12 12 12 13 13 13 13 12 12 12 12 12 12 11 11 11
11 12 12 12 11 12 11 11 11 11 11 12 12 12 12 12 12 12 13 13 13 13 12 12 12 12 12 12 11 11 11 11
11 11 11 12 11 11 11 11 12 12 11 11 12 12 13 13 12 13 12 12 13 12 12 12 12 12 12 11 11 11 11 11
11 11 10 11 11 11 11 10 11 12 11 11 12 13 13 13 13 13 13 12 12 12 12 11 12 12 12 11 11 11 11 10
11 11 10 10 10 11 11 11 11 12 11 12 13 13 13 13 14 13 14 12 12 12 12 12 11 11 11 11 11 11 10 10
11 11 11 10 10 10 11 10 11 12 12 12 12 13 13 13 13 13 14 12 12 12 12 12 11 11 11 11 10 10 10 10
10 10 11 11 11 11 10 10 10 11 12 13 12 12 13 12 12 13 13 12 12 12 12 11 11 11 11 10 10 11 10 10
10 10 10 10 10 10 9 9 10 11 12 12 12 13 12 12 12 12 13 12 11 11 11 11 11 11 10 10 10 10 10 9
10 10 10 10 9 9 9 9 10 10 11 11 11 11 11 12 11 12 12 11 11 11 11 10 10 10 10 9 9 10 10 9
9 9 9 9 9 9 8 9 10 10 11 11 11 11 11 11 12 11 12 11 11 11 11 11 10 10 10 10 9 9 9 10
9 9 10 9 9 9 8 9 9 10 10 10 10 9 10 12 11 11 11 11 11 11 11 10 10 10 10 10 9 9 10 10
9 9 9 9 9 9 8 9 9 10 10 10 9 10 11 12 11 11 11 10 11 11 10 10 10 10 10 9 9 10 10 9
9 9 9 9 9 8 9 9 10 10 10 10 10 10 11 11 11 11 11 10 11 10 10 9 10 10 10 10 9 9 9 9
8 8 8 8 8 8 9 9 10 9 10 9 10 10 11 10 11 11 11 11 11 11 11 10 10 9 10 9 9 9 9 8
10 9 9 8 8 8 9 9 9 9 9 9 10 10 10 11 11 11 11 11 11 11 10 10 10 9 9 9 8 9 9 8
13 13 11 10 9 9 9 9 9 9 10 10 10 10 10 11 11 11 11 11 11 11 10 10 10 11 9 9 8 9 8 7

GFSFLT2_850_temp_093.txt.gz
Temp
14 12 12 13 13 14 16 16 16 16 16 16 16 15 14 14 13 13 13 13 13 13 13 12 12 12 12 12 13 13 13 12
13 13 13 13 12 12 15 16 16 15 16 15 15 15 14 13 14 13 13 13 13 13 13 12 12 12 12 12 12 12 12 12
14 14 13 13 12 12 13 14 15 15 15 14 14 14 13 13 13 13 13 13 13 13 12 12 12 12 12 12 12 12 12 10
15 13 13 13 12 12 13 12 13 15 14 13 13 13 14 13 12 12 12 12 13 12 12 12 12 12 12 12 12 12 12 11
13 12 13 12 12 11 11 11 13 14 14 13 13 13 13 12 12 12 12 12 12 12 12 12 12 12 12 12 12 12 11 10
12 13 13 12 11 12 11 11 11 13 13 12 12 12 12 12 12 12 12 12 13 12 12 12 12 12 12 12 12 12 11 11
11 11 12 11 11 11 11 11 12 11 12 11 13 12 12 12 12 13 13 13 13 12 12 11 13 12 12 11 12 11 11 10
12 11 11 12 11 11 11 12 11 11 11 11 12 12 12 12 12 13 13 13 12 13 12 12 12 12 11 11 11 11 10 10
11 10 10 10 11 11 11 11 11 11 11 11 12 11 12 12 13 13 12 13 12 12 12 12 12 11 11 11 11 11 10 10
11 10 10 11 10 10 10 10 10 11 11 10 11 12 12 12 13 13 12 12 12 12 11 11 11 11 11 11 10 10 10 10
10 10 10 10 10 10 10 11 11 11 11 11 11 12 12 13 13 12 12 12 12 12 11 11 11 11 11 11 10 10 10 10
11 10 10 10 10 10 10 10 11 10 10 11 11 12 13 12 13 12 11 11 11 12 11 11 11 11 11 10 10 10 10 9
10 10 10 10 10 10 10 10 9 9 10 10 10 11 12 12 12 12 11 11 12 12 11 11 10 10 11 10 10 10 9 9
10 10 10 10 10 10 10 10 10 11 10 10 11 11 12 12 12 11 11 11 11 11 11 11 10 10 10 10 9 9 9 10
10 9 9 10 10 10 10 9 10 10 10 11 10 11 11 10 10 11 11 11 12 12 11 10 10 10 10 10 9 9 10 10
9 9 9 10 9 9 10 9 9 10 10 11 11 11 11 10 10 10 11 11 12 11 11 10 10 10 10 10 10 10 10 10
9 9 9 9 9 9 9 9 9 10 10 10 11 11 10 10 9 10 11 11 11 11 10 10 10 9 9 9 9 9 9 9
9 9 9 9 9 9 9 10 9 10 10 10 11 11 10 9 9 10 10 10 10 11 11 10 10 9 9 9 9 9 9 9
9 9 8 9 9 9 9 9 10 10 10 10 11 10 10 10 10 10 10 11 11 10 11 10 10 10 10 9 9 9 8 8
11 11 9 9 8 8 8 8 9 10 10 10 10 10 10 10 10 10 10 11 11 10 11 11 11 11 10 10 9 9 8 8

GFSFLT2_850_temp_096.txt.gz
Temp
15 14 11 11 13 15 16 16 16 16 16 16 17 16 15 14 14 13 13 13 13 13 13 13 13 13 13 13 13 10 11 11
14 13 13 11 13 13 13 14 15 16 15 16 16 15 15 14 13 13 13 13 13 12 12 12 12 13 13 13 13 12 11 11
13 13 13 13 12 13 13 13 13 15 15 15 14 14 14 13 12 13 13 13 12 12 12 12 12 12 12 13 12 11 11 11
11 12 13 14 14 14 14 13 12 13 15 13 12 13 12 12 13 13 13 13 12 12 12 12 12 12 12 12 11 10 11 10
12 12 12 13 13 14 13 13 11 13 14 14 12 12 12 11 12 12 13 12 12 12 11 11 10 10 10 10 10 10 10 10
11 12 11 12 12 12 12 11 11 12 13 12 12 12 12 11 11 11 12 12 11 10 10 10 10 10 10 10 10 10 10 10
11 11 11 12 12 11 12 12 11 11 12 12 11 12 11 12 11 11 11 11 10 10 10 10 12 11 9 10 9 10 9 9
11 11 11 11 11 11 11 11 12 11 12 12 11 11 12 13 11 11 11 11 11 11 10 11 12 10 11 11 10 9 9 9
11 11 11 11 12 11 11 11 11 11 11 11 11 13 12 13 13 11 11 11 10 10 11 10 11 10 11 11 11 9 9 9
11 11 11 11 11 11 11 11 11 11 10 11 11 11 12 12 13 10 11 11 11 12 10 12 11 10 10 10 10 10 9 8
10 11 11 10 10 13 11 10 10 11 10 10 11 10 12 14 12 10 12 13 12 12 11 12 11 10 10 10 9 9 9 8
10 10 11 10 10 10 10 10 10 10 10 10 10 10 10 13 12 12 12 12 12 11 11 11 10 10 10 9 9 9 8 8
10 10 11 10 10 10 10 10 10 11 10 10 10 9 11 12 12 12 12 12 11 12 11 11 11 10 9 9 9 10 10 9
10 10 10 10 10 10 10 10 10 10 10 9 9 10 11 12 12 12 11 11 11 11 11 10 11 11 10 9 9 8 9 9
10 11 10 10 10 10 10 10 10 10 9 9 9 10 11 12 12 12 12 12 11 11 11 11 11 11 10 9 11 11 11 9
10 10 9 9 10 10 10 10 10 9 9 9 9 10 10 11 11 11 11 11 11 11 11 12 11 10 10 10 9 10 10 10
10 10 9 9 9 10 10 9 9 9 9 9 9 10 10 10 10 11 10 10 11 11 11 11 11 10 9 9 9 9 9 10
10 10 9 9 9 9 9 10 9 9 9 10 10 10 10 10 10 11 10 10 11 11 11 11 11 10 9 8 8 8 9 9
9 10 10 9 9 10 9 9 10 9 9 9 9 10 10 10 10 10 10 11 10 11 11 11 11 10 10 10 9 10 9 8
9 9 10 10 10 10 10 8 9 10 9 9 10 10 11 11 11 11 11 10 10 10 9 10 10 10 10 10 10 10 10 10

GFSFLT2_850_temp_099.txt.gz
Temp
15 16 15 15 15 12 12 15 16 16 16 16 16 15 14 14 14 15 15 14 14 14 14 14 14 14 13 13 12 13 13 12
14 15 14 14 11 12 12 14 15 15 16 16 16 15 14 14 14 14 14 14 14 14 13 13 13 13 13 13 12 12 12 12
14 14 13 12 10 12 11 13 13 15 15 15 15 14 14 14 12 14 14 14 13 13 13 13 13 13 12 12 12 13 13 11
13 14 14 11 11 12 12 12 13 13 14 14 14 14 13 12 12 13 13 13 13 13 13 13 12 12 12 12 12 12 12 11
13 13 13 12 12 12 11 14 12 13 13 13 13 13 12 12 12 12 12 12 12 12 12 12 10 10 11 12 11 12 12 10
12 12 12 13 13 12 13 13 12 12 13 13 12 13 12 12 12 12 12 12 12 12 12 11 11 11 11 11 11 12 12 10
12 12 12 13 12 12 13 13 13 12 12 13 12 13 13 12 11 12 11 11 12 11 11 12 11 11 11 10 11 12 11 10
11 12 12 12 12 12 12 12 13 12 12 12 12 13 12 12 11 12 12 12 11 11 12 11 11 11 10 11 11 11 11 10
11 11 12 12 12 12 12 12 12 13 11 12 12 12 12 12 12 12 13 12 12 12 12 11 11 11 11 10 11 11 11 11
11 11 11 11 12 12 11 11 12 12 11 11 11 11 11 11 12 13 13 13 12 12 11 11 11 11 11 11 11 10 10 10
12 12 11 11 11 12 11 11 11 11 11 11 10 11 11 11 11 12 12 12 12 12 11 11 11 12 11 11 11 10 10 10
11 11 11 11 10 11 11 11 11 11 11 11 10 10 10 11 11 11 11 11 11 11 11 11 11 12 12 11 10 10 10 10
12 10 10 11 10 10 10 11 10 11 11 11 11 10 9 10 10 10 10 11 10 10 10 11 11 11 12 11 10 9 9 9
12 10 10 10 10 10 10 10 10 10 11 11 11 10 9 9 10 10 10 10 10 10 10 10 11 10 11 11 10 9 9 10
12 11 10 10 10 10 10 10 10 10 11 11 10 10 9 9 9 10 11 10 11 10 10 10 10 9 10 11 11 12 11 9
10 11 10 10 10 10 10 10 10 10 10 10 10 9 8 8 9 10 11 11 10 11 12 12 10 9 10 11 11 11 12 12
10 10 10 10 10 10 10 10 11 11 10 10 9 9 9 8 9 11 11 10 10 11 12 11 11 10 10 10 11 10 11 10
10 10 10 10 10 10 11 11 10 10 10 9 9 9 9 9 9 10 11 11 11 12 12 11 11 10 10 10 9 9 10 9
10 10 10 10 10 10 10 10 10 10 9 9 9 9 9 9 9 10 11 11 11 11 11 10 11 11 11 11 10 9 10 9
9 9 9 10 10 9 9 9 9 9 9 9 9 9 9 10 9 9 11 11 11 11 11 10 10 10 10 10 10 10 9 9

GFSFLT2_850_temp_102.txt.gz
Temp
18 18 18 17 16 15 14 13 13 13 14 15 14 14 14 13 13 15 15 16 16 16 15 15 14 13 13 13 13 13 12 11
17 17 17 16 16 15 14 14 14 11 13 14 15 13 12 13 14 15 15 15 15 15 15 14 13 13 13 13 13 12 12 10
15 15 15 15 14 14 13 12 12 11 12 13 14 13 13 13 14 14 14 14 14 14 14 14 13 13 13 13 13 12 11 11
14 13 14 14 13 12 10 10 12 12 12 13 12 12 13 13 13 14 14 14 14 14 14 14 13 13 12 12 13 12 12 12
14 13 13 13 13 11 12 12 12 13 12 13 12 12 12 13 12 13 13 13 13 13 13 13 13 12 12 12 12 12 12 12
14 13 13 13 12 12 11 11 12 12 12 12 12 12 12 13 13 13 13 12 13 13 13 13 12 12 12 11 12 12 11 11
13 13 12 12 12 12 11 12 12 12 12 12 13 13 13 13 13 12 12 12 13 13 12 11 11 11 11 12 12 12 12 11
12 12 12 13 12 12 12 12 13 13 12 12 12 13 13 13 13 12 12 12 12 12 12 11 11 11 11 11 11 11 11 11
12 11 12 12 12 12 12 12 12 12 12 12 12 13 13 12 12 12 11 12 12 12 12 11 11 11 11 11 11 11 11 11
12 11 11 11 12 12 12 12 13 12 13 13 13 12 13 12 12 12 12 11 11 12 12 11 11 11 11 11 11 11 11 10
11 12 11 11 11 11 12 11 12 12 13 13 12 11 11 12 12 12 12 12 12 12 12 11 11 11 11 11 11 11 10 10
12 12 11 11 12 11 11 11 11 11 11 11 11 11 10 11 12 12 12 12 12 12 12 11 11 11 11 11 11 11 10 10
12 12 12 12 12 10 11 11 11 11 11 11 11 11 11 11 12 12 12 12 12 12 12 11 11 12 12 11 11 10 10 10
12 12 12 12 11 10 10 10 10 11 11 11 11 10 11 11 12 12 12 11 11 12 11 11 11 11 12 11 10 10 10 10
12 12 12 12 13 11 10 11 10 10 10 11 11 10 10 11 11 11 12 12 11 11 11 11 11 11 11 11 11 10 11 11
11 11 12 12 12 11 10 10 11 10 10 10 10 10 10 10 10 10 11 11 10 11 10 11 11 11 11 11 11 11 12 11
10 11 11 12 11 10 10 10 11 11 11 10 11 10 10 9 9 9 9 9 10 10 10 10 11 11 11 11 11 11 11 11
10 10 11 12 11 11 10 10 10 10 10 10 10 10 10 8 9 9 9 9 9 10 10 11 11 10 11 11 11 11 11 11
11 9 10 11 11 11 10 10 10 10 10 10 9 9 9 9 9 8 9 9 8 9 11 11 10 11 11 10 10 11 10 10
11 10 10 10 11 11 11 10 10 10 11 10 10 9 10 9 9 8 8 8 9 11 9 10 11 11 11 12 11 10 10 10